Tracking 30995 objects as of 5-Jul-2025
HD Live streaming from Space Station
objects crossing your sky now

GMS-T

Track GMS-T now!
10-day predictions


NORAD ID: 47346
Int'l Code: 2021-004A
Perigee: 1,204.4 km
Apogee: 1,205.0 km
Inclination: 90.1 °
Period: 109.4 minutes
Semi major axis: 7575 km
RCS: Unknown
Launch date: January 20, 2021
Source: Germany (GER)
Launch site: Rocket Lab Launch Complex (RLLC)
Your satellite tracking list
Your tracking list is empty




NASA's NSSDC Master Catalog

Two Line Element Set (TLE):
1 47346U 21004A   25186.55557941 -.00000004  00000-0 -33114-4 0  9996
2 47346  90.1053 237.9704 0000430 242.6482 117.4606 13.16647335213988
Source of the keplerian elements: AFSPC